Location: Hamilton
(39.3990°N, 84.5610°W)
Time: 20:14:26
(UTC-05:00)

ISS - Visible Passes

Search period start: 18 December 2018 00:00
Search period end: 28 December 2018 00:00
Orbit: 401 x 408 km, 51.6° (Epoch: 19 December)

Date Brightness Start Highest point End Pass type
(mag) Time Alt. Az. Time Alt. Az. Time Alt. Az.
20 Dec -0.3 07:21:54 10° SSE 07:23:34 13° SE 07:25:14 10° E visible
22 Dec -1.8 07:12:23 10° SSW 07:15:22 33° SE 07:18:22 10° ENE visible
23 Dec -0.7 06:21:06 10° S 06:23:19 17° SE 06:25:32 10° E visible
24 Dec -3.8 07:04:00 10° SW 07:07:17 88° SSE 07:10:35 10° NE visible
25 Dec -2.6 06:13:03 18° SSW 06:15:06 42° SE 06:18:14 10° ENE visible
26 Dec -0.9 05:24:09 18° ESE 05:24:09 18° ESE 05:25:34 10° E visible
26 Dec -3.3 06:56:52 15° W 06:59:17 39° NNW 07:02:24 10° NE visible
27 Dec -3.4 06:07:33 55° NNE 06:07:33 55° NNE 06:10:15 10° NE visible
